Regional Weather Roundup
Issued by NWS Lake Charles, LA

Home | Current Version | Previous Version | Text Only | Print | Product List | Glossary On
Versions: 1 2 3 4 5 6 7 8 9 10 11 12 13 14 15 16 17 18 19 20 21 22 23 24 25 26 27 28 29 30 31 32 33 34 35 36 37 38 39 40 41 42 43 44 45 46 47 48 49 50
000
ASUS44 KLCH 291610
RWRLCH
RWRLCH
REGIONAL WEATHER ROUNDUP
NATIONAL WEATHER SERVICE LAKE CHARLES LA
1100 AM CDT WED JUL 29 2015

Note: "fair" indicates few or no clouds below 12,000 feet with no
significant weather and/or obstructions to visibility.


ACROSS SOUTHEAST TEXAS

CITY           SKY/WX    TMP DP  RH WIND       PRES   REMARKS
BEAUMONT       SUNNY     92  72  51 NW7       30.05S
BEAUMONT CITY    N/A     88  72  57 CALM      30.07R
ORANGE         SUNNY     90  64  42 CALM      30.07S
JASPER         SUNNY     92  67  44 NW6       30.09S
$$

ACROSS CENTRAL LOUISIANA

CITY           SKY/WX    TMP DP  RH WIND       PRES   REMARKS
LEESVILLE      SUNNY     91  72  54 VRB3      30.05F
FULLERTON        N/A     93  73  52 CALM      30.04S HX 102
ALEXANDRIA INT SUNNY     92  74  55 N6        30.04S HX 101
ESLER FIELD    SUNNY     96  73  47 VRB3      30.05F HX 105
DERIDDER         N/A     91  73  56 NW6       30.08S
OAKDALE        PTSUNNY   92  73  55 NW5       30.05F HX 100
OPELOUSAS        N/A     90  75  61 N5        30.05S HX 100
$$

ACROSS SOUTHWEST AND SOUTH CENTRAL LOUISIANA

CITY           SKY/WX    TMP DP  RH WIND       PRES   REMARKS
SULPHUR        SUNNY     92  71  50 NW6       30.06S
LAKE CHARLES   SUNNY     91  74  57 NW5       30.05S HX 100
CHENNAULT INT  SUNNY     90  73  58 NW12      30.05F
CAMERON PHI    SUNNY     88  77  70 N9        30.08S HX 100
DEQUINCY         N/A     90  73  56 NW7       30.06S
JENNINGS         N/A     88  76  66 N7        30.05S
LAFAYETTE      SUNNY     92  75  57 NE6       30.05S HX 103
NEW IBERIA     SUNNY     91  76  61 N7        30.05S HX 103
ABBEVILLE        N/A     90  76  64 NW6       30.05S HX 101
PATTERSON      SUNNY     90  75  62 N9        30.05F HX 100
SALT POINT       N/A     90  76  63 NE3       30.02F HX 101
$$

SELECTED SITES ACROSS THE REGION

CITY           SKY/WX    TMP DP  RH WIND       PRES   REMARKS
HOUSTON BUSH   MOSUNNY   89  73  59 CALM      30.06S
HOUSTON HOBBY  MOSUNNY   88  75  65 CALM      30.06R
GALVESTON      MOSUNNY   90  74  59 VRB5      30.07R
COLLEGE STAT   SUNNY     86  74  67 CALM      30.07S
CONROE         SUNNY     88  72  58 VRB5      30.08S
HUNTSVILLE     SUNNY     88  74  63 CALM      30.08F
LUFKIN         SUNNY     88  71  57 N3        30.07S
SHREVEPORT     SUNNY     93  67  42 NW3       30.06S
MONROE         SUNNY     92  76  59 NW8       30.06S HX 104
NATCHEZ MS     SUNNY     88  75  66 N7        30.07S
BATON ROUGE    SUNNY     91  75  59 NW7       30.05S HX 101
N.O. INTL ARPT PTSUNNY   90  75  61 N9        30.04S HX 100
SLIDELL        MOSUNNY   92  77  61 N9        30.03F HX 105
$$

MARINE REPORTS

STATION/POSITION TIME  TEMP    WIND        PRES    VSBY  WAVE
                       AIR SEA DIR/SP/G                  HT/PER
                 (UTC) (F)     (DEG/KT/KT) (MB)    (MI)  (FT/S)
BUOY 30 S HIGH I 1550   85 87  280/  4/  4 1017.6R         2/ 6
SEA RIM ST PARK  1600   90     290/  2/  4 1018.2F
PORT ARTHUR      1500      88  340/  2/  6 1017.8F
SABINE PASS N    1500   86 88  360/  4/  6 1017.9F
TEXAS POINT      NOT AVBL
CALCASIEU PASS   1500   86 88   20/  8/ 10 1016.9F
LK CHARLES BEACH 1500   85 89                N/A
MARSH ISLAND     1500   85      10/  9/ 12   N/A           0
FRESH WATER LOCK 1500   85 88  350/ 10/ 12 1017.4F
AMERADA PASS     NOT AVBL
$$



USA.gov is the U.S. government's official web portal to all federal, state and local government web resources and services.